| time (UTC) | temp F | wind direction | speed knots | gust knots | rain 1hr in | rain 24hr in | rain mn in | humidity % | barometer mb |
| 20260508225028 | 98 | 307 | 3.5 | 8.7 | 0.00 | 0.00 | 0.00 | 13 | 1006.2 |
| 20260508224545 | 98 | 262 | 2.6 | 11.3 | 0.00 | 0.00 | 0.00 | 13 | 1006.1 |
| 20260508224024 | 98 | 253 | 4.3 | 11.3 | 0.00 | 0.00 | 0.00 | 13 | 1006.2 |
| 20260508223526 | 98 | 276 | 3.5 | 9.6 | 0.00 | 0.00 | 0.00 | 13 | 1006.3 |
| 20260508223135 | 97 | 285 | 2.6 | 11.3 | 0.00 | 0.00 | 0.00 | 14 | 1006.3 |
| 20260508222524 | 97 | 320 | 3.5 | 11.3 | 0.00 | 0.00 | 0.00 | 14 | 1006.4 |
| 20260508222026 | 97 | 306 | 3.5 | 11.3 | 0.00 | 0.00 | 0.00 | 13 | 1006.5 |
| 20260508221541 | 97 | 296 | 3.5 | 10.4 | 0.00 | 0.00 | 0.00 | 14 | 1006.7 |
| 20260508221024 | 97 | 304 | 5.2 | 10.4 | 0.00 | 0.00 | 0.00 | 14 | 1006.7 |
| 20260508220524 | 97 | 239 | 3.5 | 10.4 | 0.00 | 0.00 | 0.00 | 14 | 1006.8 |
| 20260508220041 | 97 | 331 | 4.3 | 10.4 | 0.00 | 0.00 | 0.00 | 14 | 1007.0 |
| 20260508215526 | 97 | 309 | 4.3 | 9.6 | 0.00 | 0.00 | 0.00 | 15 | 1007.1 |
| 20260508215028 | 97 | 300 | 3.5 | 9.6 | 0.00 | 0.00 | 0.00 | 14 | 1007.3 |
| 20260508214549 | 97 | 321 | 3.5 | 9.6 | 0.00 | 0.00 | 0.00 | 14 | 1007.3 |
| 20260508214030 | 96 | 255 | 1.7 | 9.6 | 0.00 | 0.00 | 0.00 | 14 | 1007.6 |
| 20260508213526 | 96 | 321 | 2.6 | 9.6 | 0.00 | 0.00 | 0.00 | 14 | 1007.6 |
| 20260508213045 | 96 | 331 | 4.3 | 9.6 | 0.00 | 0.00 | 0.00 | 14 | 1007.6 |
| 20260508212528 | 96 | 298 | 3.5 | 8.7 | 0.00 | 0.00 | 0.00 | 15 | 1007.7 |
| 20260508212028 | 96 | 316 | 1.7 | 11.3 | 0.00 | 0.00 | 0.00 | 15 | 1007.8 |
| 20260508211543 | 96 | 285 | 3.5 | 11.3 | 0.00 | 0.00 | 0.00 | 14 | 1007.9 |
| 20260508211027 | 96 | 319 | 0.9 | 7.8 | 0.00 | 0.00 | 0.00 | 15 | 1008.0 |
| 20260508210526 | 96 | 308 | 2.6 | 7.8 | 0.00 | 0.00 | 0.00 | 15 | 1008.1 |
| 20260508210045 | 95 | 313 | 2.6 | 9.6 | 0.00 | 0.00 | 0.00 | 15 | 1008.2 |
| 20260508205527 | 94 | 221 | 3.5 | 10.4 | 0.00 | 0.00 | 0.00 | 15 | 1008.2 |
| 20260508205029 | 95 | 333 | 2.6 | 10.4 | 0.00 | 0.00 | 0.00 | 15 | 1008.2 |
| 20260508204538 | 95 | 242 | 3.5 | 10.4 | 0.00 | 0.00 | 0.00 | 15 | 1008.3 |
| 20260508204025 | 95 | 322 | 0.9 | 7.0 | 0.00 | 0.00 | 0.00 | 15 | 1008.5 |
| 20260508203525 | 94 | 323 | 1.7 | 8.7 | 0.00 | 0.00 | 0.00 | 15 | 1008.6 |
| 20260508203037 | 93 | 290 | 2.6 | 8.7 | 0.00 | 0.00 | 0.00 | 16 | 1008.6 |
| 20260508202525 | 93 | 286 | 3.5 | 7.8 | 0.00 | 0.00 | 0.00 | 15 | 1008.7 |
| 20260508202024 | 94 | 259 | 3.5 | 7.8 | 0.00 | 0.00 | 0.00 | 15 | 1008.6 |
| 20260508201539 | 94 | 265 | 1.7 | 7.8 | 0.00 | 0.00 | 0.00 | 15 | 1008.8 |
| 20260508201024 | 93 | 168 | 1.7 | 8.7 | 0.00 | 0.00 | 0.00 | 16 | 1008.8 |
| 20260508200524 | 93 | 349 | 3.5 | 8.7 | 0.00 | 0.00 | 0.00 | 16 | 1009.0 |
| 20260508200047 | 93 | 304 | 0.9 | 7.8 | 0.00 | 0.00 | 0.00 | 16 | 1009.0 |
| 20260508195523 | 93 | 312 | 2.6 | 7.8 | 0.00 | 0.00 | 0.00 | 15 | 1009.1 |
| 20260508195027 | 93 | 213 | 2.6 | 7.8 | 0.00 | 0.00 | 0.00 | 16 | 1009.1 |
| 20260508194545 | 93 | 322 | 2.6 | 7.8 | 0.00 | 0.00 | 0.00 | 16 | 1009.2 |
| 20260508194023 | 92 | 292 | 0.9 | 9.6 | 0.00 | 0.00 | 0.00 | 17 | 1009.2 |
| 20260508193523 | 92 | 318 | 2.6 | 9.6 | 0.00 | 0.00 | 0.00 | 17 | 1009.3 |
| 20260508193044 | 93 | 310 | 3.5 | 9.6 | 0.00 | 0.00 | 0.00 | 17 | 1009.5 |
| 20260508192524 | 93 | 226 | 2.6 | 7.8 | 0.00 | 0.00 | 0.00 | 16 | 1009.5 |
| 20260508192025 | 92 | 265 | 1.7 | 7.8 | 0.00 | 0.00 | 0.00 | 17 | 1009.7 |
| 20260508191539 | 92 | 238 | 3.5 | 7.8 | 0.00 | 0.00 | 0.00 | 17 | 1009.6 |
| 20260508191024 | 92 | 263 | 3.5 | 7.8 | 0.00 | 0.00 | 0.00 | 17 | 1009.7 |
| 20260508190524 | 91 | 225 | 1.7 | 7.0 | 0.00 | 0.00 | 0.00 | 17 | 1009.7 |
| 20260508190054 | 91 | 245 | 1.7 | 7.8 | 0.00 | 0.00 | 0.00 | 17 | 1009.9 |
| 20260508185524 | 90 | 347 | 1.7 | 7.8 | 0.00 | 0.00 | 0.00 | 17 | 1009.9 |
| 20260508185024 | 91 | 325 | 3.5 | 7.8 | 0.00 | 0.00 | 0.00 | 16 | 1010.0 |
| 20260508184558 | 92 | 269 | 2.6 | 6.1 | 0.00 | 0.00 | 0.00 | 16 | 1010.0 |
| 20260508184024 | 91 | 0 | 0.9 | 6.1 | 0.00 | 0.00 | 0.00 | 17 | 1010.2 |
| 20260508183523 | 91 | 213 | 0.9 | 6.1 | 0.00 | 0.00 | 0.00 | 17 | 1010.3 |
| 20260508183039 | 90 | 133 | 0.9 | 7.0 | 0.00 | 0.00 | 0.00 | 17 | 1010.3 |
| 20260508182527 | 90 | 69 | 0.9 | 7.0 | 0.00 | 0.00 | 0.00 | 16 | 1010.3 |
| 20260508182025 | 90 | 259 | 1.7 | 7.0 | 0.00 | 0.00 | 0.00 | 18 | 1010.4 |
| 20260508181551 | 90 | 319 | 1.7 | 6.1 | 0.00 | 0.00 | 0.00 | 17 | 1010.3 |
| 20260508181024 | 90 | 0 | 0.9 | 6.1 | 0.00 | 0.00 | 0.00 | 18 | 1010.5 |
| 20260508180524 | 89 | 0 | 0.9 | 6.1 | 0.00 | 0.00 | 0.00 | 18 | 1010.6 |
| 20260508180039 | 89 | 0 | 1.7 | 6.1 | 0.00 | 0.00 | 0.00 | 19 | 1010.6 |
| 20260508175525 | 89 | 0 | 0.0 | 6.1 | 0.00 | 0.00 | 0.00 | 19 | 1010.6 |
| 20260508175027 | 88 | 0 | 0.0 | 6.1 | 0.00 | 0.00 | 0.00 | 20 | 1010.7 |
| 20260508174543 | 88 | 192 | 0.9 | 5.2 | 0.00 | 0.00 | 0.00 | 20 | 1010.7 |
| 20260508174027 | 87 | 0 | 0.9 | 6.1 | 0.00 | 0.00 | 0.00 | 20 | 1010.8 |
| 20260508173524 | 87 | 176 | 0.0 | 6.1 | 0.00 | 0.00 | 0.00 | 20 | 1010.8 |
| 20260508173047 | 87 | 194 | 1.7 | 4.3 | 0.00 | 0.00 | 0.00 | 20 | 1010.8 |
| 20260508172524 | 86 | 252 | 0.9 | 5.2 | 0.00 | 0.00 | 0.00 | 21 | 1010.8 |
| 20260508172025 | 86 | 319 | 1.7 | 6.1 | 0.00 | 0.00 | 0.00 | 21 | 1010.8 |
| 20260508171540 | 87 | 317 | 1.7 | 6.1 | 0.00 | 0.00 | 0.00 | 20 | 1010.9 |
| 20260508171023 | 87 | 215 | 0.9 | 5.2 | 0.00 | 0.00 | 0.00 | 20 | 1010.9 |
| 20260508170523 | 87 | 161 | 0.0 | 3.5 | 0.00 | 0.00 | 0.00 | 20 | 1010.9 |
| 20260508170041 | 86 | 0 | 0.0 | 4.3 | 0.00 | 0.00 | 0.00 | 20 | 1011.0 |
| 20260508165524 | 86 | 167 | 0.9 | 4.3 | 0.00 | 0.00 | 0.00 | 20 | 1011.0 |
| 20260508165023 | 86 | 200 | 0.9 | 3.5 | 0.00 | 0.00 | 0.00 | 20 | 1011.0 |
| 20260508164549 | 85 | 94 | 0.9 | 4.3 | 0.00 | 0.00 | 0.00 | 21 | 1011.1 |
| 20260508164026 | 85 | 0 | 0.9 | 4.3 | 0.00 | 0.00 | 0.00 | 21 | 1011.1 |
| 20260508163527 | 84 | 176 | 0.9 | 3.5 | 0.00 | 0.00 | 0.00 | 21 | 1011.1 |
| 20260508163038 | 83 | 0 | 0.0 | 3.5 | 0.00 | 0.00 | 0.00 | 22 | 1011.2 |
| 20260508162524 | 83 | 85 | 0.0 | 5.2 | 0.00 | 0.00 | 0.00 | 22 | 1011.1 |
| 20260508162027 | 82 | 153 | 1.7 | 5.2 | 0.00 | 0.00 | 0.00 | 23 | 1011.1 |
| 20260508161548 | 82 | 212 | 1.7 | 6.1 | 0.00 | 0.00 | 0.00 | 22 | 1011.1 |
| 20260508161024 | 82 | 0 | 0.9 | 7.0 | 0.00 | 0.00 | 0.00 | 25 | 1011.0 |
| 20260508160523 | 81 | 160 | 1.7 | 7.0 | 0.00 | 0.00 | 0.00 | 26 | 1011.0 |
| 20260508160039 | 81 | 199 | 1.7 | 7.0 | 0.00 | 0.00 | 0.00 | 25 | 1010.9 |
| 20260508155524 | 81 | 119 | 1.7 | 6.1 | 0.00 | 0.00 | 0.00 | 27 | 1010.9 |
| 20260508155024 | 80 | 193 | 0.9 | 6.1 | 0.00 | 0.00 | 0.00 | 27 | 1011.0 |
| 20260508154542 | 80 | 140 | 1.7 | 5.2 | 0.00 | 0.00 | 0.00 | 27 | 1011.0 |
| 20260508154025 | 79 | 91 | 1.7 | 6.1 | 0.00 | 0.00 | 0.00 | 28 | 1011.1 |
| 20260508153524 | 78 | 148 | 0.9 | 6.1 | 0.00 | 0.00 | 0.00 | 28 | 1011.2 |
| 20260508153039 | 78 | 100 | 2.6 | 6.1 | 0.00 | 0.00 | 0.00 | 28 | 1011.2 |
| 20260508152524 | 78 | 151 | 2.6 | 6.1 | 0.00 | 0.00 | 0.00 | 29 | 1011.2 |
| 20260508152024 | 77 | 96 | 1.7 | 6.1 | 0.00 | 0.00 | 0.00 | 29 | 1011.2 |
| 20260508151538 | 77 | 132 | 1.7 | 6.1 | 0.00 | 0.00 | 0.00 | 29 | 1011.2 |
| 20260508151025 | 76 | 107 | 0.9 | 5.2 | 0.00 | 0.00 | 0.00 | 29 | 1011.2 |
| 20260508150529 | 76 | 150 | 1.7 | 5.2 | 0.00 | 0.00 | 0.00 | 30 | 1011.2 |
| 20260508150050 | 75 | 145 | 1.7 | 6.1 | 0.00 | 0.00 | 0.00 | 31 | 1011.3 |
| 20260508145525 | 75 | 156 | 1.7 | 7.0 | 0.00 | 0.00 | 0.00 | 31 | 1011.3 |
| 20260508145023 | 74 | 157 | 2.6 | 8.7 | 0.00 | 0.00 | 0.00 | 31 | 1011.2 |
| 20260508144600 | 74 | 133 | 2.6 | 9.6 | 0.00 | 0.00 | 0.00 | 32 | 1011.2 |
| 20260508144024 | 73 | 167 | 2.6 | 9.6 | 0.00 | 0.00 | 0.00 | 31 | 1011.2 |
| 20260508143525 | 73 | 177 | 3.5 | 9.6 | 0.00 | 0.00 | 0.00 | 32 | 1011.2 |
| 20260508143048 | 73 | 98 | 2.6 | 7.8 | 0.00 | 0.00 | 0.00 | 32 | 1011.1 |
| 20260508142526 | 72 | 106 | 2.6 | 7.0 | 0.00 | 0.00 | 0.00 | 32 | 1011.1 |
| 20260508142025 | 72 | 107 | 1.7 | 6.1 | 0.00 | 0.00 | 0.00 | 33 | 1011.2 |
| 20260508141545 | 71 | 113 | 0.9 | 7.8 | 0.00 | 0.00 | 0.00 | 34 | 1011.2 |
| 20260508141024 | 71 | 153 | 2.6 | 7.8 | 0.00 | 0.00 | 0.00 | 34 | 1011.1 |
| 20260508140527 | 70 | 136 | 2.6 | 8.7 | 0.00 | 0.00 | 0.00 | 34 | 1010.9 |
| 20260508140046 | 70 | 117 | 2.6 | 8.7 | 0.00 | 0.00 | 0.00 | 35 | 1010.9 |
| 20260508135527 | 69 | 111 | 2.6 | 7.8 | 0.00 | 0.00 | 0.00 | 35 | 1010.9 |
| 20260508135027 | 69 | 157 | 1.7 | 6.1 | 0.00 | 0.00 | 0.00 | 35 | 1010.8 |
| 20260508134551 | 68 | 131 | 1.7 | 7.8 | 0.00 | 0.00 | 0.00 | 36 | 1010.8 |
| 20260508134024 | 68 | 164 | 2.6 | 7.8 | 0.00 | 0.00 | 0.00 | 36 | 1010.7 |
| 20260508133526 | 68 | 146 | 1.7 | 7.8 | 0.00 | 0.00 | 0.00 | 36 | 1010.6 |
| 20260508133108 | 67 | 144 | 1.7 | 7.0 | 0.00 | 0.00 | 0.00 | 36 | 1010.6 |
| 20260508132524 | 67 | 92 | 2.6 | 7.0 | 0.00 | 0.00 | 0.00 | 36 | 1010.5 |
| 20260508132024 | 67 | 156 | 3.5 | 7.0 | 0.00 | 0.00 | 0.00 | 36 | 1010.4 |
| 20260508131539 | 67 | 163 | 2.6 | 7.0 | 0.00 | 0.00 | 0.00 | 36 | 1010.4 |
| 20260508131029 | 66 | 118 | 1.7 | 6.1 | 0.00 | 0.00 | 0.00 | 37 | 1010.4 |
| 20260508130523 | 66 | 113 | 1.7 | 6.1 | 0.00 | 0.00 | 0.00 | 37 | 1010.2 |
| 20260508130039 | 66 | 145 | 2.6 | 7.0 | 0.00 | 0.00 | 0.00 | 37 | 1010.3 |
| 20260508125524 | 66 | 158 | 1.7 | 7.0 | 0.00 | 0.00 | 0.00 | 37 | 1010.0 |
| 20260508125025 | 66 | 106 | 1.7 | 7.0 | 0.00 | 0.00 | 0.00 | 37 | 1010.0 |
| 20260508124538 | 66 | 153 | 2.6 | 7.0 | 0.00 | 0.00 | 0.00 | 37 | 1010.0 |
| 20260508124024 | 66 | 111 | 2.6 | 7.0 | 0.00 | 0.00 | 0.00 | 37 | 1009.9 |
| 20260508123528 | 67 | 92 | 1.7 | 5.2 | 0.00 | 0.00 | 0.00 | 37 | 1009.9 |
| 20260508123057 | 67 | 123 | 1.7 | 5.2 | 0.00 | 0.00 | 0.00 | 36 | 1009.9 |
| 20260508122524 | 67 | 95 | 1.7 | 7.0 | 0.00 | 0.00 | 0.00 | 36 | 1009.7 |
| 20260508122024 | 67 | 126 | 1.7 | 7.0 | 0.00 | 0.00 | 0.00 | 36 | 1009.8 |
| 20260508121543 | 67 | 142 | 2.6 | 7.0 | 0.00 | 0.00 | 0.00 | 36 | 1009.8 |
| 20260508121024 | 67 | 158 | 2.6 | 6.1 | 0.00 | 0.00 | 0.00 | 36 | 1009.8 |
| 20260508120524 | 68 | 125 | 2.6 | 7.0 | 0.00 | 0.00 | 0.00 | 36 | 1009.8 |
| 20260508120039 | 68 | 117 | 2.6 | 7.0 | 0.00 | 0.00 | 0.00 | 35 | 1009.7 |
| 20260508115524 | 68 | 144 | 1.7 | 7.0 | 0.00 | 0.00 | 0.00 | 36 | 1009.7 |
| 20260508115025 | 68 | 109 | 2.6 | 7.0 | 0.00 | 0.00 | 0.00 | 36 | 1009.7 |
| 20260508114539 | 68 | 141 | 3.5 | 7.0 | 0.00 | 0.00 | 0.00 | 36 | 1009.7 |
| 20260508114024 | 68 | 186 | 2.6 | 7.8 | 0.00 | 0.00 | 0.00 | 36 | 1009.6 |
| 20260508113526 | 68 | 130 | 2.6 | 7.8 | 0.00 | 0.00 | 0.00 | 35 | 1009.6 |
| 20260508113059 | 68 | 159 | 2.6 | 9.6 | 0.00 | 0.00 | 0.00 | 35 | 1009.6 |
| 20260508112527 | 68 | 155 | 2.6 | 9.6 | 0.00 | 0.00 | 0.00 | 35 | 1009.6 |
| 20260508112024 | 68 | 163 | 2.6 | 7.8 | 0.00 | 0.00 | 0.00 | 35 | 1009.6 |
| 20260508111547 | 68 | 152 | 1.7 | 5.2 | 0.00 | 0.00 | 0.00 | 35 | 1009.6 |
| 20260508111023 | 68 | 125 | 1.7 | 5.2 | 0.00 | 0.00 | 0.00 | 35 | 1009.5 |
| 20260508110523 | 69 | 138 | 1.7 | 4.3 | 0.00 | 0.00 | 0.00 | 34 | 1009.6 |
| 20260508110050 | 69 | 121 | 1.7 | 4.3 | 0.00 | 0.00 | 0.00 | 34 | 1009.6 |
| 20260508105524 | 69 | 177 | 1.7 | 5.2 | 0.00 | 0.00 | 0.00 | 34 | 1009.7 |
| 20260508105023 | 69 | 105 | 1.7 | 5.2 | 0.00 | 0.00 | 0.00 | 34 | 1009.6 |
| 20260508104540 | 69 | 110 | 0.9 | 7.0 | 0.00 | 0.00 | 0.00 | 34 | 1009.5 |
| 20260508104024 | 69 | 126 | 1.7 | 7.0 | 0.00 | 0.00 | 0.00 | 34 | 1009.5 |
| 20260508103525 | 69 | 153 | 2.6 | 7.8 | 0.00 | 0.00 | 0.00 | 34 | 1009.4 |
| 20260508103047 | 69 | 130 | 2.6 | 7.8 | 0.00 | 0.00 | 0.00 | 33 | 1009.4 |
| 20260508102524 | 69 | 132 | 2.6 | 7.0 | 0.00 | 0.00 | 0.00 | 33 | 1009.4 |
| 20260508102024 | 69 | 157 | 2.6 | 8.7 | 0.00 | 0.00 | 0.00 | 33 | 1009.4 |
| 20260508101541 | 69 | 162 | 3.5 | 8.7 | 0.00 | 0.00 | 0.00 | 33 | 1009.2 |
| 20260508101024 | 69 | 154 | 3.5 | 8.7 | 0.00 | 0.00 | 0.00 | 34 | 1009.2 |
| 20260508100524 | 69 | 182 | 3.5 | 7.8 | 0.00 | 0.00 | 0.00 | 34 | 1009.2 |
| 20260508100042 | 69 | 126 | 1.7 | 7.8 | 0.00 | 0.00 | 0.00 | 34 | 1009.2 |
| 20260508095524 | 69 | 140 | 3.5 | 7.8 | 0.00 | 0.00 | 0.00 | 34 | 1009.1 |
| 20260508095023 | 69 | 130 | 2.6 | 7.0 | 0.00 | 0.00 | 0.00 | 34 | 1009.0 |
| 20260508094539 | 69 | 111 | 2.6 | 7.8 | 0.00 | 0.00 | 0.00 | 34 | 1009.1 |
| 20260508094024 | 69 | 93 | 3.5 | 8.7 | 0.00 | 0.00 | 0.00 | 35 | 1009.1 |
| 20260508093524 | 69 | 133 | 2.6 | 8.7 | 0.00 | 0.00 | 0.00 | 35 | 1009.1 |
| 20260508093039 | 69 | 159 | 1.7 | 8.7 | 0.00 | 0.00 | 0.00 | 35 | 1009.0 |
| 20260508092523 | 69 | 152 | 1.7 | 8.7 | 0.00 | 0.00 | 0.00 | 35 | 1009.1 |
| 20260508092023 | 69 | 117 | 2.6 | 8.7 | 0.00 | 0.00 | 0.00 | 35 | 1009.1 |
| 20260508091550 | 69 | 119 | 2.6 | 7.0 | 0.00 | 0.00 | 0.00 | 35 | 1009.1 |
| 20260508091025 | 69 | 122 | 2.6 | 6.1 | 0.00 | 0.00 | 0.00 | 34 | 1009.1 |
| 20260508090525 | 69 | 126 | 2.6 | 8.7 | 0.00 | 0.00 | 0.00 | 34 | 1009.2 |
| 20260508090058 | 69 | 92 | 3.5 | 8.7 | 0.00 | 0.00 | 0.00 | 34 | 1009.2 |
| 20260508085526 | 69 | 79 | 2.6 | 7.8 | 0.00 | 0.00 | 0.00 | 33 | 1009.2 |
| 20260508085024 | 69 | 115 | 3.5 | 7.8 | 0.00 | 0.00 | 0.00 | 33 | 1009.2 |
| 20260508084539 | 69 | 105 | 3.5 | 7.0 | 0.00 | 0.00 | 0.00 | 32 | 1009.2 |
| 20260508084025 | 69 | 104 | 2.6 | 7.0 | 0.00 | 0.00 | 0.00 | 31 | 1009.2 |
| 20260508083524 | 70 | 82 | 1.7 | 5.2 | 0.00 | 0.00 | 0.00 | 29 | 1009.1 |
| 20260508083039 | 70 | 106 | 1.7 | 5.2 | 0.00 | 0.00 | 0.00 | 28 | 1009.2 |
| 20260508082527 | 70 | 98 | 1.7 | 5.2 | 0.00 | 0.00 | 0.00 | 27 | 1009.2 |
| 20260508082028 | 70 | 95 | 1.7 | 5.2 | 0.00 | 0.00 | 0.00 | 26 | 1009.2 |
| 20260508081544 | 70 | 108 | 1.7 | 5.2 | 0.00 | 0.00 | 0.00 | 25 | 1009.2 |
| 20260508081028 | 71 | 103 | 1.7 | 5.2 | 0.00 | 0.00 | 0.00 | 25 | 1009.3 |
| 20260508080526 | 71 | 111 | 2.6 | 5.2 | 0.00 | 0.00 | 0.00 | 24 | 1009.3 |
| 20260508080040 | 71 | 104 | 1.7 | 5.2 | 0.00 | 0.00 | 0.00 | 23 | 1009.3 |
| 20260508075526 | 71 | 93 | 1.7 | 4.3 | 0.00 | 0.00 | 0.00 | 22 | 1009.3 |
| 20260508075025 | 71 | 116 | 1.7 | 5.2 | 0.00 | 0.00 | 0.00 | 22 | 1009.2 |
| 20260508074543 | 71 | 80 | 1.7 | 5.2 | 0.00 | 0.00 | 0.00 | 22 | 1009.2 |
| 20260508074025 | 72 | 98 | 1.7 | 5.2 | 0.00 | 0.00 | 0.00 | 22 | 1009.3 |
| 20260508073525 | 72 | 95 | 1.7 | 3.5 | 0.00 | 0.00 | 0.00 | 23 | 1009.3 |
| 20260508073040 | 72 | 113 | 0.9 | 3.5 | 0.00 | 0.00 | 0.00 | 23 | 1009.4 |
| 20260508072524 | 72 | 82 | 1.7 | 2.6 | 0.00 | 0.00 | 0.00 | 23 | 1009.3 |
| 20260508072027 | 73 | 102 | 0.9 | 2.6 | 0.00 | 0.00 | 0.00 | 24 | 1009.3 |
| 20260508071552 | 73 | 102 | 0.9 | 2.6 | 0.00 | 0.00 | 0.00 | 24 | 1009.3 |
| 20260508071026 | 73 | 115 | 0.9 | 3.5 | 0.00 | 0.00 | 0.00 | 23 | 1009.4 |
| 20260508070524 | 73 | 145 | 0.9 | 5.2 | 0.00 | 0.00 | 0.00 | 23 | 1009.3 |
| 20260508070043 | 73 | 105 | 1.7 | 5.2 | 0.00 | 0.00 | 0.00 | 23 | 1009.4 |
| 20260508065524 | 73 | 0 | 1.7 | 5.2 | 0.00 | 0.00 | 0.00 | 22 | 1009.4 |
| 20260508065024 | 74 | 103 | 0.9 | 3.5 | 0.00 | 0.00 | 0.00 | 22 | 1009.2 |
| 20260508064539 | 74 | 102 | 0.9 | 3.5 | 0.00 | 0.00 | 0.00 | 21 | 1009.2 |
| 20260508064025 | 73 | 87 | 1.7 | 3.5 | 0.00 | 0.00 | 0.00 | 22 | 1009.2 |
| 20260508063525 | 73 | 0 | 1.7 | 3.5 | 0.00 | 0.00 | 0.00 | 23 | 1009.2 |
| 20260508063039 | 74 | 78 | 0.9 | 2.6 | 0.00 | 0.00 | 0.00 | 24 | 1009.3 |
| 20260508062524 | 74 | 95 | 0.0 | 1.7 | 0.00 | 0.00 | 0.00 | 23 | 1009.1 |
| 20260508062025 | 75 | 0 | 0.0 | 0.0 | 0.00 | 0.00 | 0.00 | 22 | 1009.2 |
| 20260508061543 | 75 | 0 | 0.0 | 1.7 | 0.00 | 0.00 | 0.00 | 22 | 1009.1 |
| 20260508061026 | 75 | 0 | 0.0 | 1.7 | 0.00 | 0.00 | 0.00 | 20 | 1009.1 |
| 20260508060524 | 76 | 0 | 0.0 | 2.6 | 0.00 | 0.00 | 0.00 | 20 | 1009.0 |
| 20260508060044 | 76 | 194 | 0.9 | 2.6 | 0.00 | 0.00 | 0.00 | 20 | 1009.1 |
| 20260508055525 | 76 | 194 | 0.0 | 2.6 | 0.00 | 0.00 | 0.00 | 19 | 1009.0 |
| 20260508055025 | 76 | 194 | 0.9 | 3.5 | 0.00 | 0.00 | 0.00 | 19 | 1009.0 |
| 20260508054545 | 77 | 194 | 0.9 | 3.5 | 0.00 | 0.00 | 0.00 | 19 | 1009.0 |
| 20260508054024 | 77 | 213 | 0.0 | 1.7 | 0.00 | 0.00 | 0.00 | 20 | 1009.1 |
| 20260508053523 | 77 | 213 | 0.0 | 2.6 | 0.00 | 0.00 | 0.00 | 18 | 1008.9 |
| 20260508053101 | 77 | 213 | 0.0 | 2.6 | 0.00 | 0.00 | 0.00 | 18 | 1009.0 |
| 20260508052524 | 77 | 206 | 0.9 | 3.5 | 0.00 | 0.00 | 0.00 | 18 | 1008.9 |
| 20260508052024 | 77 | 205 | 1.7 | 3.5 | 0.00 | 0.00 | 0.00 | 18 | 1009.0 |
| 20260508051541 | 77 | 208 | 1.7 | 3.5 | 0.00 | 0.00 | 0.00 | 19 | 1009.0 |
| 20260508051025 | 77 | 188 | 0.9 | 1.7 | 0.00 | 0.00 | 0.00 | 19 | 1008.9 |
| 20260508050523 | 77 | 189 | 0.9 | 1.7 | 0.00 | 0.00 | 0.00 | 19 | 1008.9 |
| 20260508050041 | 78 | 189 | 0.9 | 1.7 | 0.00 | 0.00 | 0.00 | 18 | 1008.9 |
| 20260508045528 | 78 | 0 | 0.0 | 2.6 | 0.00 | 0.00 | 0.00 | 18 | 1008.8 |
| 20260508045024 | 79 | 189 | 0.0 | 2.6 | 0.00 | 0.00 | 0.00 | 18 | 1008.8 |
| 20260508044538 | 79 | 189 | 0.9 | 2.6 | 0.00 | 0.00 | 0.00 | 17 | 1008.7 |
| 20260508044027 | 79 | 188 | 0.9 | 2.6 | 0.00 | 0.00 | 0.00 | 17 | 1008.7 |
| 20260508043525 | 79 | 188 | 0.9 | 2.6 | 0.00 | 0.00 | 0.00 | 17 | 1008.6 |
| 20260508043040 | 80 | 0 | 0.0 | 0.0 | 0.00 | 0.00 | 0.00 | 16 | 1008.5 |
| 20260508042524 | 80 | 0 | 0.0 | 0.0 | 0.00 | 0.00 | 0.00 | 16 | 1008.5 |
| 20260508042023 | 81 | 0 | 0.0 | 0.9 | 0.00 | 0.00 | 0.00 | 16 | 1008.5 |
| 20260508041606 | 81 | 0 | 0.0 | 1.7 | 0.00 | 0.00 | 0.00 | 15 | 1008.3 |
| 20260508041024 | 81 | 0 | 0.0 | 2.6 | 0.00 | 0.00 | 0.00 | 15 | 1008.5 |
| 20260508040525 | 82 | 232 | 0.9 | 2.6 | 0.00 | 0.00 | 0.00 | 15 | 1008.2 |
| 20260508040051 | 82 | 248 | 0.9 | 2.6 | 0.00 | 0.00 | 0.00 | 14 | 1008.3 |
| 20260508035524 | 82 | 258 | 0.9 | 2.6 | 0.00 | 0.00 | 0.00 | 15 | 1008.2 |
| 20260508035027 | 82 | 236 | 0.9 | 2.6 | 0.00 | 0.00 | 0.00 | 14 | 1008.1 |
| 20260508034539 | 83 | 0 | 0.9 | 2.6 | 0.00 | 0.00 | 0.00 | 14 | 1007.9 |
| 20260508034025 | 83 | 240 | 0.9 | 3.5 | 0.00 | 0.00 | 0.00 | 14 | 1007.9 |
| 20260508033524 | 83 | 0 | 0.9 | 3.5 | 0.00 | 0.00 | 0.00 | 14 | 1007.9 |
| 20260508033040 | 84 | 205 | 1.7 | 3.5 | 0.00 | 0.00 | 0.00 | 14 | 1007.7 |
| 20260508032524 | 84 | 288 | 0.9 | 2.6 | 0.00 | 0.00 | 0.00 | 13 | 1007.8 |
| 20260508032024 | 85 | 267 | 0.0 | 3.5 | 0.00 | 0.00 | 0.00 | 13 | 1007.7 |
| 20260508031540 | 85 | 246 | 0.9 | 3.5 | 0.00 | 0.00 | 0.00 | 12 | 1007.8 |
| 20260508031024 | 85 | 262 | 0.9 | 3.5 | 0.00 | 0.00 | 0.00 | 12 | 1007.6 |
| 20260508030528 | 86 | 276 | 0.9 | 2.6 | 0.00 | 0.00 | 0.00 | 12 | 1007.5 |
| 20260508030038 | 86 | 260 | 0.0 | 3.5 | 0.00 | 0.00 | 0.00 | 12 | 1007.4 |
| 20260508025524 | 86 | 0 | 0.0 | 3.5 | 0.00 | 0.00 | 0.00 | 11 | 1007.4 |
| 20260508025024 | 87 | 239 | 0.9 | 3.5 | 0.00 | 0.00 | 0.00 | 11 | 1007.3 |
| 20260508024543 | 87 | 243 | 0.9 | 3.5 | 0.00 | 0.00 | 0.00 | 11 | 1007.2 |
| 20260508024024 | 87 | 0 | 0.9 | 5.2 | 0.00 | 0.00 | 0.00 | 11 | 1007.1 |
| 20260508023528 | 88 | 269 | 0.9 | 5.2 | 0.00 | 0.00 | 0.00 | 11 | 1007.2 |
| 20260508023038 | 88 | 0 | 1.7 | 5.2 | 0.00 | 0.00 | 0.00 | 11 | 1007.1 |
| 20260508022524 | 88 | 279 | 1.7 | 6.1 | 0.00 | 0.00 | 0.00 | 10 | 1007.0 |
| 20260508022024 | 89 | 298 | 1.7 | 6.1 | 0.00 | 0.00 | 0.00 | 10 | 1007.0 |
| 20260508021539 | 89 | 306 | 1.7 | 6.1 | 0.00 | 0.00 | 0.00 | 10 | 1007.0 |
| 20260508021024 | 89 | 306 | 1.7 | 5.2 | 0.00 | 0.00 | 0.00 | 10 | 1006.9 |
| 20260508020524 | 90 | 302 | 1.7 | 6.1 | 0.00 | 0.00 | 0.00 | 10 | 1006.8 |
| 20260508020045 | 90 | 267 | 1.7 | 6.1 | 0.00 | 0.00 | 0.00 | 9 | 1006.6 |
| 20260508015528 | 90 | 299 | 0.9 | 7.0 | 0.00 | 0.00 | 0.00 | 9 | 1006.7 |
| 20260508015025 | 91 | 287 | 1.7 | 7.8 | 0.00 | 0.00 | 0.00 | 9 | 1006.8 |
| 20260508014539 | 91 | 304 | 2.6 | 9.6 | 0.00 | 0.00 | 0.00 | 9 | 1006.9 |
| 20260508014025 | 91 | 253 | 3.5 | 9.6 | 0.00 | 0.00 | 0.00 | 8 | 1006.9 |
| 20260508013530 | 91 | 286 | 1.7 | 9.6 | 0.00 | 0.00 | 0.00 | 8 | 1006.9 |
| 20260508013039 | 91 | 270 | 1.7 | 7.8 | 0.00 | 0.00 | 0.00 | 8 | 1006.9 |
| 20260508012524 | 92 | 289 | 2.6 | 10.4 | 0.00 | 0.00 | 0.00 | 8 | 1006.9 |
| 20260508012024 | 92 | 282 | 4.3 | 10.4 | 0.00 | 0.00 | 0.00 | 8 | 1006.8 |
| 20260508011551 | 92 | 269 | 1.7 | 9.6 | 0.00 | 0.00 | 0.00 | 8 | 1006.8 |
| 20260508011024 | 92 | 252 | 3.5 | 9.6 | 0.00 | 0.00 | 0.00 | 8 | 1006.8 |
| 20260508010527 | 92 | 256 | 3.5 | 9.6 | 0.00 | 0.00 | 0.00 | 8 | 1006.7 |
| 20260508010043 | 92 | 317 | 2.6 | 9.6 | 0.00 | 0.00 | 0.00 | 8 | 1006.8 |
| 20260508005527 | 92 | 262 | 4.3 | 9.6 | 0.00 | 0.00 | 0.00 | 8 | 1006.6 |
| 20260508005026 | 92 | 308 | 3.5 | 9.6 | 0.00 | 0.00 | 0.00 | 8 | 1006.6 |
| 20260508004543 | 93 | 296 | 2.6 | 7.8 | 0.00 | 0.00 | 0.00 | 8 | 1006.6 |
| 20260508004027 | 92 | 260 | 2.6 | 7.8 | 0.00 | 0.00 | 0.00 | 8 | 1006.8 |
| 20260508003524 | 93 | 274 | 2.6 | 7.0 | 0.00 | 0.00 | 0.00 | 8 | 1006.7 |
| 20260508003038 | 93 | 298 | 2.6 | 7.8 | 0.00 | 0.00 | 0.00 | 7 | 1006.8 |
| 20260508002524 | 93 | 275 | 3.5 | 7.8 | 0.00 | 0.00 | 0.00 | 7 | 1006.7 |
| 20260508002024 | 93 | 302 | 2.6 | 7.0 | 0.00 | 0.00 | 0.00 | 8 | 1006.8 |
| 20260508001549 | 93 | 250 | 1.7 | 7.0 | 0.00 | 0.00 | 0.00 | 8 | 1006.7 |
| 20260508001024 | 93 | 298 | 2.6 | 7.0 | 0.00 | 0.00 | 0.00 | 7 | 1006.7 |
| 20260508000524 | 93 | 309 | 1.7 | 5.2 | 0.00 | 0.00 | 0.00 | 8 | 1006.8 |
| 20260508000043 | 93 | 243 | 0.9 | 4.3 | 0.00 | 0.00 | 0.00 | 8 | 1006.7 |
| 20260507235524 | 93 | 331 | 0.0 | 7.8 | 0.00 | 0.00 | 0.00 | 7 | 1006.8 |
| 20260507235024 | 93 | 352 | 1.7 | 8.7 | 0.00 | 0.00 | 0.00 | 7 | 1006.8 |
| 20260507234541 | 93 | 321 | 2.6 | 8.7 | 0.00 | 0.00 | 0.00 | 7 | 1006.8 |
| 20260507234024 | 93 | 336 | 4.3 | 8.7 | 0.00 | 0.00 | 0.00 | 7 | 1006.8 |
| 20260507233524 | 93 | 205 | 2.6 | 7.8 | 0.00 | 0.00 | 0.00 | 8 | 1006.8 |
| 20260507233055 | 93 | 235 | 3.5 | 8.7 | 0.00 | 0.00 | 0.00 | 8 | 1006.8 |
| 20260507232523 | 93 | 287 | 2.6 | 8.7 | 0.00 | 0.00 | 0.00 | 8 | 1006.9 |
| 20260507232026 | 93 | 292 | 1.7 | 7.8 | 0.00 | 0.00 | 0.00 | 9 | 1006.8 |
| 20260507231540 | 93 | 240 | 2.6 | 8.7 | 0.00 | 0.00 | 0.00 | 9 | 1006.8 |
| 20260507231025 | 93 | 310 | 1.7 | 8.7 | 0.00 | 0.00 | 0.00 | 9 | 1006.8 |
| 20260507230525 | 93 | 309 | 4.3 | 9.6 | 0.00 | 0.00 | 0.00 | 9 | 1006.8 |
| 20260507230040 | 94 | 269 | 3.5 | 9.6 | 0.00 | 0.00 | 0.00 | 9 | 1006.9 |
| 20260507225524 | 94 | 271 | 3.5 | 9.6 | 0.00 | 0.00 | 0.00 | 9 | 1007.0 |